User: anonymous   Login
Location: Unspecified
(0.0000°N, 0.0000°E)
Time: 18:26:33
(UTC+00:00)
Language:

NOAA 18 - Orbit

View from above orbital plane
View from above orbital plane
View from above satellite
View from above satellite

Ground track
Ground track

The orbit data is extracted from the following two-line orbital elements,

1 28654U 05018A   20226.89313955 +.00000053 +00000-0 +52975-4 0  9994
2 28654 099.0395 283.8461 0015222 071.5129 288.7696 14.12531852785021
Epoch (UTC): 13 August 2020 21:26:07
Eccentricity: 0.0015222
inclination: 99.0395°
perigee height: 840 km
apogee height: 862 km
right ascension of ascending node: 283.8461°
argument of perigee: 71.5129°
revolutions per day: 14.12531852
mean anomaly at epoch: 288.7696°
orbit number at epoch: 78502

The dashed part of the orbit path shows where the satellite is in the earth's shadow,  

DLR